Regional Weather Roundup
Issued by NWS Northern Indiana

Home | Current Version | Previous Version | Graphics & Text | Print | Product List | Glossary On
Versions: 1 2 3 4 5 6 7 8 9 10 11 12 13 14 15 16 17 18 19 20 21 22 23 24 25 26 27 28 29 30 31 32 33 34 35 36 37 38 39 40 41 42 43 44 45 46 47 48 49 50
000
ASUS43 KIWX 050100
RWRIWX

KIWX WEATHER ROUNDUP
NATIONAL WEATHER SERVICE NORTHERN INDIANA
900 PM EDT FRI SEP 04 2015

NOTE: "FAIR" INDICATES FEW OR NO CLOUDS BELOW 12,000 FEET WITH NO
SIGNIFICANT WEATHER AND/OR OBSTRUCTIONS TO VISIBILITY.

* THESE STATIONS ARE NOT UNDER NWS QUALITY CONTROL. THEY ALSO MAY NOT
  REPORT WEATHER SUCH AS PRECIPITATION OR FOG.

INZ001>027-050200-
NORTHERN INDIANA

CITY           SKY/WX    TMP DP  RH WIND       PRES   REMARKS
GARY*          PTCLDY    73  68  83 NE7       30.04S
SOUTH BEND     MOCLDY    74  69  85 W5        30.05R
ELKHART*       MOCLDY    75  72  88 CALM      30.05R
GOSHEN         MOCLDY    71  65  81 CALM      30.04S
ANGOLA*        CLEAR     73  72  94 CALM      30.05S
FORT WAYNE     CLOUDY    68  65  90 NE8       30.07R

$$
INZ028>050-050200-
CENTRAL INDIANA

CITY           SKY/WX    TMP DP  RH WIND       PRES   REMARKS
LAFAYETTE      CLOUDY    74  64  71 CALM      30.03R
KOKOMO*        MOCLDY    70  63  78 SE6       30.05F
MUNCIE*        CLOUDY    69  63  81 S5        30.07F
INDIANAPOLIS   TSTM      75  69  81 SW10      30.05S

$$
MIZ043>046-050>051-056>058-064>065-071>073-077>080-050200-
SOUTHWEST LOWER MICHIGAN

CITY           SKY/WX    TMP DP  RH WIND       PRES   REMARKS
BATTLE CREEK   CLOUDY    74  66  76 CALM      30.06R
BENTON HARBOR  LGT RAIN  68  65  90 CALM      30.04S
COLDWATER*     CLOUDY    73  71  92 CALM      30.05R
HILLSDALE*     CLOUDY    72  72 100 CALM      30.06S
HOLLAND        MOCLDY    70  66  87 NW5       30.05R
GRAND RAPIDS   CLOUDY    74  68  81 W3        30.05R
KALAMAZOO      MOCLDY    73  66  78 CALM      30.05R
STURGIS*       MOCLDY    73  72  94 CALM      30.05R
THREE RIVERS*  FAIR      74  68  81 CALM      30.05R HAZE

$$
OHZ001>008-015>018-024>025-050200-
NORTHWEST OHIO

CITY           SKY/WX    TMP DP  RH WIND       PRES   REMARKS
DEFIANCE       CLOUDY    72  68  87 CALM      30.05R
FINDLAY        CLOUDY    70  65  84 E7        30.04S
TOLEDO EXPRESS CLOUDY    71  67  87 SW3       30.05R
TOLEDO METCALF CLOUDY    72  65  78 S6        30.06R
LIMA           CLOUDY    69  66  90 S10       30.07R

$$
AND FOR LAKE MICHIGAN COASTAL AND OPEN LAKE BUOY OBSERVATIONS

STATION/POSITION TEMP    WIND        PRES    VSBY  WAVE
                 AIR SEA DIR/SP/G                  HT/PER
                 (F)     (DEG/KT/KT) (MB)    (MI)  (FT/S)
CALUMET HARBOR    72      40/  5/  6   N/A
MICHIGAN CITY     71      30/  9/ 10   N/A
BURNS HARBOR      72      70/ 10/ 12 1017.3F
SAINT JOSEPH      71     360/  6/  8 1017.3F
SOUTH LAKE BUOY   67 71   50/  8/ 10 1016.8R         1
4 MI NW BRIDGMAN  71 76   90/  6/  8   N/A           1/ 3
MICHIGAN CITY     71 74   70/  8/ 10   N/A           1

$$
&&



USA.gov is the U.S. government's official web portal to all federal, state and local government web resources and services.